1498230000.44,20102,20.13,73638.3,5.51,5.55,5.41,0,*78
1498230001.66,20103,20.13,73646.0,5.51,5.63,5.51,0,*7D
1498230002.86,20104,20.13,73644.3,5.53,5.67,5.51,0,*7C
1498230004.05,20105,20.13,73648.5,5.53,5.59,5.55,0,*74
1498230005.28,20106,20.13,73644.3,5.57,5.59,5.55,0,*73
1498230006.47,20107,20.13,73634.8,5.57,5.59,5.49,0,*7F
1498230007.65,20108,20.13,73620.8,5.59,5.63,5.45,0,*7B
1498230008.85,20109,20.13,73616.8,5.59,5.55,5.33,0,*7E
1498230010.05,20110,20.13,73614.3,5.59,5.49,5.27,0,*7E
1498230011.24,20111,20.13,73624.8,5.61,5.59,5.49,0,*7D
1498230012.46,20112,20.13,73622.5,5.61,5.67,5.51,0,*7A
1498230013.66,20113,20.13,73630.3,5.63,5.63,5.51,0,*7D
1498230014.86,20114,20.13,73632.0,5.63,5.67,5.51,0,*7E
1498230016.06,20115,20.13,73632.3,5.63,6.11,5.85,0,*74
1498230017.25,20116,20.13,73634.5,5.67,6.33,6.03,0,*7E
1498230018.49,20117,20.13,73628.0,5.69,6.17,5.85,0,*7A
1498230019.72,20118,20.13,73628.5,5.69,6.03,5.73,0,*79
1498230020.94,20119,20.13,73620.3,5.71,6.17,5.93,0,*7A
1498230022.19,20120,20.13,73622.5,5.73,6.43,6.17,0,*7C
1498230023.39,20121,20.13,73622.3,5.73,6.29,6.11,0,*77
1498230024.62,20122,20.13,73630.0,5.77,6.47,6.21,0,*7B
1498230025.84,20123,20.13,73620.0,5.77,5.99,5.77,0,*7A
1498230027.0,20124,20.13,73616.8,5.75,5.71,5.41,0,*7C
1498230028.19,20125,20.13,73632.8,5.79,5.77,5.45,0,*73
1498230029.39,20126,20.13,73638.8,5.79,4.79,4.53,0,*79
1498230030.57,20127,20.13,73632.5,5.79,4.89,4.57,0,*73
1498230031.77,20128,20.19,73638.5,5.79,5.15,4.97,0,*74
1498230032.95,20129,20.13,73634.8,5.79,5.33,5.07,0,*79
1498230034.15,20130,20.13,73646.3,5.79,5.11,4.75,0,*75
1498230035.32,20131,20.13,73652.3,5.79,4.89,4.45,0,*77
1498230036.55,20132,20.13,73652.0,5.77,4.93,4.53,0,*76
1498230037.75,20133,20.13,73646.5,5.75,5.05,4.85,0,*70
1498230038.98,20134,20.13,73632.3,5.75,5.05,4.71,0,*7C
1498230040.18,20135,20.13,73610.5,5.77,5.67,5.33,0,*7C
1498230041.38,20136,20.13,73604.8,5.77,5.67,5.33,0,*7F
1498230042.6,20137,20.13,73598.5,5.79,5.85,5.55,0,*7C
1498230043.78,20138,20.13,73622.5,5.79,5.95,5.67,0,*73
1498230045.01,20139,20.13,73628.0,5.81,6.03,5.55,0,*78
1498230046.23,20140,20.13,73598.0,5.81,4.45,3.97,0,*7E
1498230047.45,20141,20.13,73600.5,5.83,4.79,4.31,0,*79
1498230048.67,20142,20.13,73598.3,5.81,4.79,4.19,0,*72
1498230049.87,20143,20.13,73602.8,5.79,3.93,3.33,0,*78
1498230051.09,20144,20.13,73600.3,5.79,2.77,2.01,0,*74
1498230052.32,20145,20.13,73600.8,5.75,2.59,1.85,0,*7A
1498230053.54,20146,20.13,73590.0,5.75,3.03,2.47,0,*7A
1498230054.73,20147,20.13,73594.5,5.73,4.45,3.63,0,*7F
1498230055.93,20148,20.13,73592.0,5.71,4.97,4.53,0,*79
1498230057.12,20149,20.13,73596.3,5.73,4.81,4.23,0,*7A
1498230058.34,20150,20.13,73554.3,5.77,5.05,4.49,0,*77
1498230059.54,20151,20.13,73572.0,5.75,5.29,4.71,0,*71
1498230060.71,20152,20.13,73566.0,5.75,5.49,4.81,0,*7B
1498230061.96,20153,20.13,73490.5,5.77,4.71,4.05,0,*7E
1498230063.16,20154,20.13,73458.5,5.75,4.59,4.07,0,*73
1498230064.35,20155,20.13,73534.5,5.77,5.45,4.85,0,*76
1498230065.55,20156,20.13,73540.5,5.77,5.67,5.07,0,*7E
1498230066.78,20157,20.13,73544.8,5.79,5.85,5.27,0,*7F
1498230067.95,20158,20.13,73532.5,5.79,5.11,4.57,0,*7B
1498230069.19,20159,20.13,73570.8,5.81,5.27,4.63,0,*7F
1498230070.42,20160,20.13,73528.3,5.81,4.97,4.41,0,*7F
1498230071.64,20161,20.13,73566.5,5.81,4.67,4.33,0,*74
1498230072.85,20162,20.13,73544.5,5.81,5.27,4.89,0,*73
1498230074.05,20163,20.13,73586.3,5.83,5.59,5.05,0,*7C
1498230075.22,20164,20.13,73560.3,5.83,5.15,4.49,0,*7A
1498230076.42,20165,20.13,73602.0,5.83,5.19,4.59,0,*76
1498230077.6,20166,20.13,73608.8,5.83,5.11,4.49,0,*7C
1498230078.82,20167,20.13,73598.8,5.85,4.71,4.23,0,*70
1498230080.04,20168,20.13,73604.8,5.85,5.01,4.45,0,*79
1498230081.25,20169,20.13,73618.8,5.83,4.23,3.75,0,*7B
1498230082.49,20170,20.13,73630.5,5.81,3.33,2.77,0,*74
1498230083.73,20171,20.13,73642.0,5.81,2.51,1.89,0,*72
1498230084.93,20172,20.13,73618.8,5.75,2.25,1.75,0,*7A
1498230086.17,20173,20.13,73568.0,5.73,2.85,2.55,0,*76
1498230087.34,20174,20.13,73538.5,5.71,4.15,3.81,0,*74
1498230088.56,20175,20.13,73520.8,5.73,4.59,4.27,0,*74
1498230089.73,20176,20.13,73516.5,5.71,4.07,3.63,0,*79
1498230090.96,20177,20.13,73512.0,5.71,3.75,3.49,0,*72
1498230092.18,20178,20.13,73548.3,5.69,3.97,3.63,0,*70
1498230093.39,20179,20.13,73566.3,5.67,3.49,3.07,0,*7E
1498230094.59,20180,20.13,73528.8,5.69,4.23,3.93,0,*70
1498230095.82,20181,20.13,73534.0,5.67,4.63,4.31,0,*74
1498230097.04,20182,20.13,73552.5,5.69,4.33,3.97,0,*77
1498230098.24,20183,20.13,73582.3,5.67,4.71,4.37,0,*73
1498230099.47,20184,20.13,73584.3,5.67,4.97,4.63,0,*7D
1498230100.7,20185,20.13,73594.5,5.67,4.97,4.71,0,*7F
1498230101.93,20186,20.13,73596.5,5.67,5.01,4.71,0,*72
1498230103.16,20187,20.13,73588.8,5.69,4.15,3.75,0,*7A
1498230104.4,20188,20.13,73560.8,5.69,3.71,3.53,0,*74
1498230105.63,20189,20.13,73546.5,5.67,3.71,3.49,0,*70
1498230106.85,20190,20.13,73562.5,5.61,3.53,3.29,0,*78
1498230108.07,20191,20.13,73578.0,5.61,3.45,3.25,0,*72
1498230109.29,20192,20.13,73596.0,5.61,3.63,3.45,0,*73
1498230110.52,20193,20.13,73598.8,5.59,4.05,3.75,0,*7D
1498230111.74,20194,20.13,73608.5,5.57,3.97,3.63,0,*7F
1498230112.94,20195,20.13,73614.0,5.59,3.59,3.33,0,*77
1498230114.14,20196,20.13,73606.3,5.57,3.59,3.25,0,*7D
1498230115.37,20197,20.13,73622.8,5.51,3.55,3.33,0,*71
1498230116.59,20198,20.13,73596.8,5.51,3.29,3.07,0,*72
1498230117.81,20199,20.13,73568.3,5.51,3.19,2.95,0,*7A
1498230119.01,20200,20.13,73572.8,5.51,3.55,3.29,0,*77
1498230120.24,20201,20.13,73562.0,5.49,3.75,3.49,0,*7B
1498230121.44,20202,20.13,73576.5,5.45,3.63,3.37,0,*7A
1498230122.61,20203,20.13,73564.0,5.45,3.85,3.63,0,*72
1498230123.79,20204,20.13,73514.3,5.45,4.33,4.07,0,*7A
1498230124.96,20205,20.13,73504.0,5.49,4.53,4.33,0,*76
1498230126.16,20206,20.13,73492.0,5.45,4.63,4.45,0,*7B
1498230127.36,20207,20.13,73504.3,5.49,4.63,4.41,0,*72
1498230128.56,20208,20.13,73512.3,5.49,4.23,4.01,0,*7D
1498230129.76,20209,20.13,73520.3,5.49,4.31,4.07,0,*79
1498230130.96,20210,20.13,73574.3,5.51,4.57,4.33,0,*7F
1498230132.16,20211,20.13,73588.8,5.45,4.75,4.53,0,*7D
1498230133.34,20212,20.13,73570.0,5.49,4.07,3.81,0,*7F
1498230134.54,20213,20.13,73524.5,5.45,4.01,3.81,0,*74
1498230135.73,20214,20.13,73522.8,5.49,4.19,4.01,0,*79
1498230136.91,20215,20.13,73538.0,5.45,4.53,4.33,0,*7B
1498230138.11,20216,20.13,73578.8,5.45,4.75,4.45,0,*7D
1498230139.28,20217,20.13,73604.3,5.45,4.57,4.23,0,*7C
1498230140.45,20218,20.13,73610.3,5.45,4.33,4.11,0,*70
1498230141.66,20219,20.13,73618.3,5.45,4.31,4.07,0,*74
1498230142.83,20220,20.13,73622.5,5.45,4.23,4.07,0,*7D
1498230144.03,20221,20.13,73626.8,5.45,4.45,4.31,0,*79
1498230145.23,20222,20.13,73630.0,5.45,4.63,4.45,0,*7D
1498230146.46,20223,20.13,73622.8,5.49,4.75,4.63,0,*73
1498230147.65,20224,20.13,73616.0,5.49,4.45,4.31,0,*70
1498230148.82,20225,20.13,73588.5,5.45,4.33,4.19,0,*76
1498230150.03,20226,20.13,73612.8,5.45,4.67,4.57,0,*7E
1498230151.2,20227,20.13,73590.3,5.49,4.57,4.33,0,*72
1498230152.4,20228,20.13,73580.8,5.49,4.63,4.41,0,*7F
1498230153.6,20229,20.13,73576.8,5.45,4.67,4.45,0,*72
1498230154.8,20230,20.13,73574.3,5.49,4.63,4.33,0,*73
1498230156.02,20231,20.13,73548.0,5.49,4.75,4.67,0,*74
1498230157.22,20232,20.13,73568.3,5.45,5.05,4.89,0,*7D
1498230158.42,20233,20.13,73606.3,5.49,5.27,5.11,0,*70
1498230159.6,20234,20.13,73624.5,5.49,5.27,4.89,0,*77
1498230160.8,20235,20.13,73618.0,5.53,5.33,4.71,0,*7F
1498230162.05,20236,20.13,73626.5,5.51,5.27,4.71,0,*7B
1498230163.27,20237,20.13,73610.8,5.53,4.63,3.79,0,*76
1498230164.47,20238,20.13,73612.3,5.53,3.67,3.29,0,*7F
1498230165.68,20239,20.13,73556.3,5.51,3.89,3.55,0,*77
1498230166.85,20240,20.13,73558.8,5.53,4.15,3.81,0,*70
1498230168.08,20241,20.13,73606.0,5.53,3.79,3.33,0,*75
1498230169.33,20242,20.13,73446.5,5.51,2.81,2.43,0,*74
1498230170.53,20243,20.13,73462.5,5.49,2.91,2.69,0,*75
1498230171.7,20244,20.13,73466.5,5.45,3.81,3.63,0,*75
1498230172.93,20245,20.13,73498.8,5.45,4.63,4.31,0,*7F
1498230174.13,20246,20.13,73540.3,5.45,4.89,4.67,0,*7B
1498230175.36,20247,20.13,73576.5,5.49,5.01,4.75,0,*74
1498230176.58,20248,20.13,73618.0,5.45,5.27,5.01,0,*71
1498230177.79,20249,20.13,73604.8,5.51,5.41,5.19,0,*7C
1498230179.01,20250,20.13,73616.0,5.51,5.51,5.29,0,*76
1498230180.18,20251,20.13,73598.5,5.53,5.41,5.11,0,*7F
1498230181.4,20252,20.13,73580.0,5.57,5.49,5.27,0,*75
1498230182.6,20253,20.13,73598.0,5.57,5.59,5.45,0,*71
1498230183.8,20254,20.13,73608.8,5.57,5.63,5.45,0,*7F
1498230184.99,20255,20.13,73570.0,5.57,5.11,4.89,0,*7A
1498230186.2,20256,20.13,73572.3,5.59,5.23,4.93,0,*7D
1498230187.37,20257,20.13,73568.0,5.59,5.45,5.15,0,*73
1498230188.59,20258,20.13,73558.8,5.59,5.27,4.93,0,*77
1498230189.84,20259,20.13,73584.0,5.61,5.27,4.93,0,*7D
1498230191.09,20260,20.13,73580.5,5.61,5.05,4.79,0,*73
1498230192.34,20261,20.13,73596.3,5.61,4.93,4.67,0,*73
1498230193.57,20262,20.13,73602.8,5.61,4.71,4.45,0,*7C
1498230194.77,20263,20.13,73600.0,5.63,4.59,4.49,0,*79
1498230195.97,20264,20.13,73598.5,5.61,4.89,4.57,0,*7E
1498230197.18,20265,20.13,73606.3,5.61,4.81,4.59,0,*79
1498230198.4,20266,20.13,73604.8,5.61,5.05,4.89,0,*7A
1498230199.6,20267,20.13,73596.8,5.61,5.19,4.89,0,*76
1498230200.81,20268,20.13,73606.0,5.63,5.19,4.93,0,*70
1498230202.05,20269,20.13,73616.8,5.61,5.27,4.97,0,*7A
1498230203.25,20270,20.13,73622.8,5.63,4.79,4.45,0,*75
1498230204.42,20271,20.13,73628.8,5.67,5.45,5.19,0,*76
1498230205.62,20272,20.13,73632.3,5.63,5.73,5.49,0,*71
1498230206.79,20273,20.13,73640.0,5.63,5.49,5.15,0,*70
1498230207.98,20274,20.13,73634.3,5.67,5.51,5.29,0,*75
1498230209.2,20275,20.13,73638.5,5.69,5.59,5.27,0,*7C
1498230210.39,20276,20.13,73642.8,5.69,5.67,5.37,0,*73
1498230211.59,20277,20.13,73632.5,5.69,5.49,5.15,0,*7E
1498230212.78,20278,20.13,73636.0,5.71,5.49,5.27,0,*79
1498230213.95,20279,20.13,73640.3,5.71,5.59,5.33,0,*7C
1498230215.17,20280,20.13,73640.8,5.73,5.29,5.01,0,*7E
1498230216.4,20281,20.13,73630.3,5.71,4.97,4.67,0,*78
1498230217.59,20282,20.13,73628.8,5.73,4.57,4.19,0,*7C
1498230218.77,20283,20.13,73626.5,5.73,4.49,4.11,0,*7A
1498230220.0,20284,20.13,73630.8,5.71,4.31,4.05,0,*75
1498230221.17,20285,20.13,73620.8,5.71,4.85,4.41,0,*7B
1498230222.4,20286,20.13,73626.8,5.67,4.97,4.63,0,*7C
1498230223.65,20287,20.13,73642.0,5.69,5.05,4.79,0,*72
1498230224.87,20288,20.13,73644.5,5.69,4.79,4.45,0,*78
1498230226.06,20289,20.13,73604.5,5.69,4.85,4.53,0,*7D
1498230227.29,20290,20.13,73554.3,5.69,4.89,4.63,0,*7A
1498230228.48,20291,20.13,73546.3,5.69,4.23,3.85,0,*74
1498230229.7,20292,20.13,73530.5,5.69,4.15,3.75,0,*7D
1498230230.91,20293,20.13,73554.8,5.67,3.89,3.49,0,*7F
1498230232.13,20294,20.13,73550.5,5.67,3.79,3.49,0,*77
1498230233.31,20295,20.13,73568.8,5.67,3.89,3.55,0,*74
1498230234.51,20296,20.13,73536.8,5.63,4.07,3.75,0,*70
1498230235.7,20297,20.13,73498.3,5.61,4.57,4.23,0,*72
1498230236.91,20298,20.13,73532.3,5.63,4.71,4.45,0,*7B
1498230238.1,20299,20.13,73550.8,5.61,4.23,3.85,0,*74
1498230239.3,20300,20.13,73602.8,5.61,4.37,4.15,0,*7E
1498230240.49,20301,20.13,73618.3,5.61,4.45,4.15,0,*7A
1498230241.71,20302,20.13,73610.3,5.61,4.23,3.97,0,*74
1498230242.94,20303,20.13,73600.0,5.61,4.59,4.45,0,*70
1498230244.19,20304,20.13,73608.5,5.61,4.93,4.67,0,*71
1498230245.36,20305,20.13,73618.8,5.63,5.19,4.89,0,*71
1498230246.59,20306,20.13,73616.8,5.61,5.19,4.97,0,*7F
1498230247.76,20307,20.13,73620.8,5.63,5.15,4.81,0,*77
1498230248.95,20308,20.13,73614.8,5.61,5.37,5.07,0,*75
1498230250.13,20309,20.13,73602.0,5.63,5.41,5.19,0,*78
1498230251.33,20310,20.13,73598.5,5.69,5.59,5.33,0,*7B
1498230252.52,20311,20.13,73612.0,5.69,5.49,5.15,0,*7F
1498230253.7,20312,20.13,73618.3,5.67,5.45,5.19,0,*72
1498230254.89,20313,20.13,73614.3,5.69,5.45,5.11,0,*75
1498230256.09,20314,20.13,73614.5,5.67,5.29,5.01,0,*77
1498230257.28,20315,20.13,73608.8,5.69,5.59,5.45,0,*7F
1498230258.5,20316,20.13,73614.3,5.69,5.45,5.27,0,*75
1498230259.68,20317,20.13,73608.8,5.71,5.55,5.37,0,*7D
1498230260.9,20318,20.13,73570.0,5.73,5.77,5.59,0,*78
1498230262.14,20319,20.13,73606.5,5.73,5.51,5.27,0,*74
1498230263.38,20320,20.13,73584.3,5.73,5.51,5.27,0,*7E
1498230264.56,20321,20.13,73542.3,5.75,5.63,5.41,0,*78
1498230265.73,20322,20.13,73566.5,5.75,5.59,5.37,0,*73
1498230266.9,20323,20.13,73574.3,5.75,5.67,5.41,0,*7E
1498230268.15,20324,20.13,73598.0,5.77,5.89,5.73,0,*7A
1498230269.35,20325,20.13,73624.5,5.79,6.03,5.81,0,*79
1498230270.56,20326,20.13,73548.3,5.79,6.03,5.81,0,*7A
1498230271.75,20327,20.13,73626.8,5.79,5.77,5.67,0,*73
1498230272.98,20328,20.13,73632.3,5.81,5.93,5.67,0,*71
1498230274.15,20329,20.13,73636.3,5.79,5.71,5.45,0,*7B
1498230275.4,20330,20.13,73602.5,5.81,4.97,4.75,0,*7F
1498230276.61,20331,20.13,73644.5,5.83,5.37,5.01,0,*75
1498230277.83,20332,20.13,73634.8,5.81,3.25,2.77,0,*77
1498230279.03,20333,20.13,73612.8,5.79,3.25,2.89,0,*70
1498230280.21,20334,20.13,73600.5,5.75,2.99,2.61,0,*7B
1498230281.43,20335,20.13,73618.0,5.75,3.19,3.07,0,*72
1498230282.65,20336,20.13,73624.5,5.73,4.11,3.67,0,*7E
1498230283.87,20337,20.13,73622.0,5.73,4.01,3.55,0,*7F
1498230285.1,20338,20.13,73604.3,5.71,3.75,3.45,0,*77
1498230286.29,20339,20.13,73594.8,5.71,3.63,3.37,0,*74
1498230287.49,20340,20.13,73578.5,5.71,4.33,4.05,0,*7E
1498230288.71,20341,20.13,73608.0,5.69,5.15,4.97,0,*78
1498230289.87,20342,20.13,73634.8,5.71,5.59,5.37,0,*71
1498230291.08,20343,20.13,73642.5,5.71,5.33,5.01,0,*79
1498230292.25,20344,20.13,73614.8,5.71,4.89,4.57,0,*7C
1498230293.47,20345,20.13,73602.3,5.71,4.67,4.31,0,*7D
1498230294.7,20346,20.13,73616.5,5.71,4.97,4.63,0,*76
1498230295.89,20347,20.13,73616.0,5.71,5.05,4.85,0,*75
1498230297.09,20348,20.13,73618.5,5.73,5.41,5.15,0,*70
1498230298.29,20349,20.13,73600.8,5.73,5.37,5.07,0,*73
1498230299.52,20350,20.13,73600.8,5.75,5.01,4.59,0,*72
1498230300.72,20351,20.13,73648.0,5.75,4.67,4.33,0,*7E
1498230301.91,20352,20.13,73604.0,5.75,4.27,4.01,0,*78
1498230303.11,20353,20.13,73572.0,5.75,4.33,4.01,0,*7C
1498230304.34,20354,20.13,73562.8,5.73,4.59,4.33,0,*70
1498230305.54,20355,20.13,73542.3,5.71,4.59,4.33,0,*73
1498230306.76,20356,20.13,73524.8,5.73,4.59,4.27,0,*77
1498230307.98,20357,20.13,73562.0,5.73,4.23,3.97,0,*77
1498230309.17,20358,20.13,73554.5,5.73,4.19,3.85,0,*72
1498230310.42,20359,20.13,73562.3,5.73,4.93,4.79,0,*75
1498230311.59,20360,20.13,73582.8,5.71,5.11,4.85,0,*75
1498230312.76,20361,20.13,73606.3,5.71,5.45,5.15,0,*7D
1498230313.98,20362,20.13,73594.5,5.71,5.01,4.75,0,*79
1498230315.18,20363,20.13,73592.3,5.71,4.57,4.31,0,*7A
1498230316.38,20364,20.13,73594.8,5.71,5.23,4.97,0,*73
1498230317.6,20365,20.13,73600.8,5.73,5.37,5.05,0,*7F
1498230318.82,20366,20.13,73616.8,5.73,5.29,5.01,0,*77
1498230320.04,20367,20.13,73622.5,5.73,5.15,4.93,0,*73
1498230321.27,20368,20.13,73628.0,5.73,5.19,5.01,0,*7A
1498230322.49,20369,20.13,73616.5,5.75,5.27,5.05,0,*74
1498230323.74,20370,20.13,73608.5,5.77,4.97,4.63,0,*75
1498230324.91,20371,20.13,73600.5,5.75,5.15,4.81,0,*71
1498230326.08,20372,20.13,73614.5,5.75,5.41,5.15,0,*7F
1498230327.31,20373,20.13,73636.5,5.77,5.55,5.23,0,*7C
1498230328.48,20374,20.13,73594.5,5.75,5.67,5.41,0,*7C
1498230329.7,20375,20.13,73578.3,5.77,4.93,4.53,0,*77
1498230330.96,20376,20.13,73638.0,5.77,4.97,4.71,0,*70
1498230332.16,20377,20.13,73646.8,5.75,5.07,4.79,0,*73
1498230333.38,20378,20.13,73632.3,5.77,5.19,4.93,0,*75
1498230334.61,20379,20.13,73634.0,5.77,5.07,4.75,0,*73
1498230335.8,20380,20.13,73630.8,5.75,4.59,4.27,0,*7A
1498230336.98,20381,20.13,73618.8,5.75,4.19,3.89,0,*7C
1498230338.16,20382,20.13,73620.0,5.77,4.49,4.27,0,*7B
1498230339.4,20383,20.13,73612.0,5.75,5.01,4.71,0,*76
1498230340.63,20384,20.13,73616.5,5.75,5.01,4.79,0,*79
1498230341.79,20385,20.13,73610.3,5.75,4.81,4.49,0,*72
1498230342.99,20386,20.13,73608.5,5.75,4.67,4.37,0,*70
1498230344.2,20387,20.13,73600.3,5.75,4.59,4.37,0,*7C
1498230345.42,20388,20.13,73624.3,5.73,4.67,4.45,0,*7D
1498230346.64,20389,20.13,73610.3,5.73,4.27,4.01,0,*78
1498230347.84,20390,20.13,73584.8,5.75,4.33,4.01,0,*73
1498230349.03,20391,20.13,73604.5,5.71,4.45,4.31,0,*74
1498230350.29,20392,20.13,73618.8,5.73,4.93,4.71,0,*7A
1498230351.51,20393,20.13,73640.3,5.73,5.05,4.89,0,*72
1498230352.76,20394,20.13,73646.0,5.73,5.01,4.71,0,*76
1498230353.96,20395,20.13,73642.3,5.71,5.15,5.01,0,*76
1498230355.16,20396,20.13,73644.3,5.73,5.37,5.07,0,*71
1498230356.41,20397,20.13,73642.8,5.73,5.27,5.01,0,*77
1498230357.58,20398,20.13,73646.3,5.71,5.45,5.11,0,*7F
1498230358.77,20399,20.13,73650.3,5.73,5.07,4.89,0,*7A
1498230359.94,20400,20.13,73656.5,5.75,5.59,5.37,0,*74
1498230361.11,20401,20.13,73660.3,5.75,5.63,5.41,0,*7D
1498230362.28,20402,20.13,73660.0,5.75,5.71,5.37,0,*7C
1498230363.45,20403,20.13,73648.8,5.75,5.59,5.29,0,*78
1498230364.65,20404,20.13,73656.3,5.77,5.67,5.33,0,*7B
1498230365.85,20405,20.13,73664.0,5.77,5.67,5.41,0,*7F
1498230367.04,20406,20.13,73660.0,5.81,5.67,5.45,0,*71
1498230368.22,20407,20.13,73660.3,5.79,5.37,5.11,0,*73
1498230369.44,20408,20.13,73662.0,5.79,4.97,4.67,0,*77
1498230370.64,20409,20.13,73660.3,5.79,4.67,4.45,0,*79
1498230371.83,20410,20.13,73664.3,5.81,4.53,4.27,0,*75
1498230373.0,20411,20.13,73664.3,5.79,4.57,4.27,0,*77
1498230374.17,20412,20.13,73652.5,5.79,4.19,3.93,0,*76
1498230375.4,20413,20.13,73660.8,5.77,4.37,4.01,0,*79
1498230376.59,20414,20.13,73648.3,5.75,4.33,4.01,0,*78
1498230377.79,20415,20.13,73620.3,5.75,4.33,4.01,0,*79
1498230378.99,20416,20.13,73618.5,5.75,4.07,3.67,0,*7A
1498230380.18,20417,20.13,73628.8,5.71,3.63,3.37,0,*7F
1498230381.37,20418,20.13,73628.3,5.71,3.93,3.53,0,*7D
1498230382.54,20419,20.13,73634.5,5.71,4.19,3.85,0,*72
1498230383.73,20420,20.13,73628.8,5.69,4.15,3.85,0,*7D
1498230384.98,20421,20.13,73630.5,5.69,3.97,3.75,0,*7E
1498230386.15,20422,20.13,73636.3,5.67,3.89,3.59,0,*72
1498230387.33,20423,20.13,73640.3,5.67,3.89,3.59,0,*73
1498230388.5,20424,20.13,73638.8,5.67,4.15,3.81,0,*73
1498230389.69,20425,20.13,73544.0,5.67,3.55,3.23,0,*79
1498230390.89,20426,20.13,73488.8,5.63,4.07,3.67,0,*7E
1498230392.09,20427,20.13,73480.0,5.61,3.89,3.63,0,*78
1498230393.33,20428,20.13,73462.3,5.61,4.01,3.79,0,*7B
1498230394.58,20429,20.13,73474.5,5.61,3.97,3.67,0,*7D
1498230395.8,20430,20.13,73546.5,5.61,4.15,3.97,0,*77
1498230397.04,20431,20.13,73552.5,5.61,3.97,3.67,0,*74
1498230398.21,20432,20.13,73574.3,5.59,3.85,3.59,0,*72
1498230399.41,20433,20.13,73544.3,5.57,4.33,4.19,0,*74
1498230400.61,20434,20.13,73550.5,5.57,4.11,3.85,0,*71
1498230401.85,20435,20.13,73522.3,5.57,3.33,3.03,0,*79
1498230403.08,20436,20.13,73494.5,5.57,3.81,3.53,0,*76
1498230404.27,20437,20.13,73512.5,5.53,3.93,3.67,0,*77
1498230405.45,20438,20.13,73538.8,5.53,4.07,3.89,0,*72
1498230406.68,20439,20.13,73566.8,5.51,3.79,3.63,0,*7B
1498230407.9,20440,20.13,73566.8,5.51,4.11,3.79,0,*77
1498230409.13,20441,20.13,73564.8,5.51,4.23,4.05,0,*7B
1498230410.33,20442,20.13,73592.0,5.51,4.37,4.15,0,*7C
1498230411.53,20443,20.13,73602.3,5.51,4.37,4.11,0,*79
1498230412.74,20444,20.13,73606.8,5.51,4.57,4.33,0,*78
1498230413.91,20445,20.13,73610.3,5.53,4.27,4.07,0,*7B
1498230415.14,20446,20.13,73608.8,5.51,4.15,4.01,0,*7D
1498230416.37,20447,20.13,73606.5,5.51,4.27,4.05,0,*79
1498230417.59,20448,20.13,73610.3,5.51,4.15,3.97,0,*7B
1498230418.82,20449,20.13,73594.8,5.51,4.23,4.05,0,*73
1498230420.05,20450,20.13,73576.5,5.51,4.15,3.97,0,*72
1498230421.27,20451,20.13,73550.5,5.51,4.05,3.85,0,*71
1498230422.47,20452,20.13,73554.8,5.45,4.63,4.45,0,*7C
1498230423.7,20453,20.13,73578.3,5.45,4.79,4.67,0,*76
1498230424.9,20454,20.13,73586.5,5.49,4.81,4.75,0,*79
1498230426.1,20455,20.13,73596.5,5.49,5.01,4.81,0,*7A
1498230427.32,20456,20.13,73598.0,5.49,4.93,4.79,0,*74
1498230428.49,20457,20.13,73600.5,5.53,4.89,4.81,0,*72
1498230429.72,20458,20.13,73598.5,5.51,5.05,4.89,0,*72
1498230430.94,20459,20.13,73614.5,5.51,5.05,4.81,0,*7B
1498230432.14,20460,20.13,73606.0,5.53,4.89,4.75,0,*7D
1498230433.34,20461,20.13,73596.5,5.53,5.01,4.81,0,*76
1498230434.54,20462,20.13,73602.5,5.53,5.19,4.97,0,*7B
1498230435.72,20463,20.13,73606.8,5.53,5.23,5.11,0,*7C
1498230436.95,20464,20.13,73606.0,5.57,5.11,4.93,0,*75
1498230438.18,20465,20.13,73608.3,5.59,5.05,4.79,0,*7B
1498230439.38,20466,20.13,73610.8,5.59,5.01,4.85,0,*7F
1498230440.6,20467,20.13,73610.8,5.59,5.27,5.05,0,*73
1498230441.83,20468,20.13,73612.0,5.57,5.05,4.89,0,*77
1498230443.03,20469,20.13,73618.3,5.59,4.89,4.79,0,*72
1498230444.2,20470,20.13,73622.5,5.59,5.15,4.89,0,*71
1498230445.38,20471,20.13,73626.0,5.59,5.33,5.15,0,*70
1498230446.56,20472,20.13,73628.0,5.59,5.37,5.15,0,*77
1498230447.73,20473,20.13,73624.5,5.63,5.37,5.19,0,*73
1498230448.91,20474,20.13,73634.0,5.63,5.49,5.19,0,*7D
1498230450.08,20475,20.13,73634.8,5.63,5.37,5.15,0,*79
1498230451.28,20476,20.13,73632.5,5.63,5.41,5.27,0,*7A
1498230452.45,20477,20.13,73646.3,5.63,5.37,5.15,0,*7B
1498230453.66,20478,20.13,73656.8,5.63,5.19,4.97,0,*73
1498230454.86,20479,20.13,73660.8,5.67,4.71,4.41,0,*72
1498230456.06,20480,20.13,73654.3,5.67,4.31,4.11,0,*75
1498230457.27,20481,20.13,73660.5,5.63,4.59,4.37,0,*7A
1498230458.46,20482,20.13,73660.5,5.67,4.93,4.81,0,*76
1498230459.64,20483,20.13,73672.8,5.63,5.41,5.07,0,*72
1498230460.84,20484,20.13,73702.0,5.63,5.15,4.79,0,*7C
1498230462.02,20485,20.13,73666.8,5.63,4.37,4.07,0,*75
1498230463.22,20486,20.13,73650.8,5.63,4.67,4.45,0,*75
1498230464.41,20487,20.13,73650.8,5.63,4.79,4.49,0,*77
1498230465.58,20488,20.13,73630.5,5.63,4.81,4.49,0,*7F
1498230466.77,20489,20.13,73610.3,5.67,4.81,4.59,0,*7B
1498230467.98,20490,20.13,73560.8,5.63,4.67,4.37,0,*77
1498230469.18,20491,20.13,73528.5,5.67,4.71,4.41,0,*74
1498230470.35,20492,20.13,73510.8,5.67,4.37,4.19,0,*78
1498230471.53,20493,20.13,73498.0,5.63,4.07,3.85,0,*7C
1498230472.75,20494,20.13,73502.8,5.61,4.23,4.01,0,*74
1498230473.91,20495,20.13,73518.3,5.63,4.81,4.49,0,*73
1498230475.11,20496,20.13,73592.3,5.63,4.71,4.49,0,*7F
1498230476.34,20497,20.13,73612.5,5.61,4.89,4.67,0,*77
1498230477.59,20498,20.13,73628.0,5.61,4.97,4.79,0,*78
1498230478.78,20499,20.13,73636.8,5.63,5.29,5.05,0,*75
1498230479.96,20500,20.13,73648.8,5.63,5.29,5.07,0,*76
1498230481.15,20501,20.13,73654.8,5.63,4.97,4.81,0,*7C
1498230482.35,20502,20.13,73662.5,5.63,5.29,4.97,0,*7C
1498230483.55,20503,20.13,73664.8,5.67,5.11,4.93,0,*76
1498230484.76,20504,20.13,73664.0,5.67,5.19,4.93,0,*79
1498230485.94,20505,20.13,73664.5,5.67,5.41,5.19,0,*76
1498230487.14,20506,20.13,73662.0,5.67,5.19,4.97,0,*7F
1498230488.34,20507,20.13,73660.3,5.67,5.01,4.81,0,*70
1498230489.53,20508,20.13,73656.0,5.69,5.45,5.15,0,*7D
1498230490.73,20509,20.13,73650.0,5.69,5.49,5.23,0,*75
1498230491.93,20510,20.13,73642.8,5.69,5.49,5.23,0,*7D
1498230493.15,20511,20.13,73638.3,5.69,5.55,5.23,0,*71
1498230494.35,20512,20.13,73634.3,5.71,5.55,5.23,0,*7B
1498230495.57,20513,20.13,73624.8,5.71,5.27,5.01,0,*7F
1498230496.74,20514,20.13,73612.3,5.71,4.89,4.57,0,*7F
1498230497.94,20515,20.13,73606.3,5.71,4.85,4.63,0,*75
1498230499.14,20516,20.13,73596.3,5.71,5.11,4.97,0,*71
1498230500.33,20517,20.13,73590.0,5.71,5.37,5.05,0,*7E
1498230501.53,20518,20.13,73574.8,5.73,5.29,5.07,0,*7E
1498230502.74,20519,20.13,73598.0,5.71,5.27,5.05,0,*71
1498230503.92,20520,20.13,73610.3,5.75,5.37,5.07,0,*7C
1498230505.15,20521,20.13,73614.8,5.73,5.19,4.93,0,*7B
1498230506.34,20522,20.13,73618.5,5.73,5.07,4.81,0,*74
1498230507.56,20523,20.13,73624.5,5.73,5.05,4.89,0,*7F
1498230508.8,20524,20.13,73624.0,5.73,5.27,5.01,0,*79
1498230510.0,20525,20.13,73628.5,5.73,4.89,4.57,0,*7F
1498230511.24,20526,20.13,73632.0,5.73,4.71,4.33,0,*79
1498230512.43,20527,20.13,73632.3,5.71,4.75,4.41,0,*7B
1498230513.63,20528,20.13,73624.5,5.73,4.81,4.57,0,*7A
1498230514.85,20529,20.13,73626.8,5.73,5.05,4.89,0,*75
1498230516.02,20530,20.13,73626.0,5.71,4.85,4.57,0,*75
1498230517.28,20531,20.13,73634.0,5.73,5.01,4.71,0,*7F
1498230518.5,20532,20.13,73638.8,5.73,5.05,4.81,0,*77
1498230519.7,20533,20.13,73632.5,5.71,5.15,4.97,0,*72
1498230520.91,20534,20.13,73640.3,5.71,5.27,5.05,0,*7E
1498230522.08,20535,20.13,73642.0,5.71,5.11,4.89,0,*7F
1498230523.32,20536,20.13,73642.5,5.73,5.27,5.01,0,*7A
1498230524.52,20537,20.13,73642.3,5.73,5.29,5.07,0,*73
1498230525.72,20538,20.13,73638.5,5.71,5.23,5.01,0,*72